Index of /music0/Various Artists/VA - Blues Single Release Week 47/VA - Blues Single Release Week 47

[ICO]NameLast modifiedSizeDescription

[PARENTDIR]Parent Directory  -  
[DIR]yEncBin_Temp0001/2024-11-22 04:43 -  
[SND]01 - Amythyst Kiah - People’s Prayer.mp32024-11-22 02:17 9.6M 
[SND]02 - Annie Dolan - Cry Me A River.mp32024-11-22 02:17 10M 
[SND]03 - Beth Hart - Machine Gun Vibrato.mp32024-11-22 02:17 7.9M 
[SND]04 - Beware Of Darkness - F.E.A.R..mp32024-11-22 02:17 8.4M 
[SND]05 - Caleb Johnson - Blind.mp32024-11-22 02:17 11M 
[SND]06 - Cedric Burnside - Closer - Audiotree Live Version.mp32024-11-22 02:17 7.7M 
[SND]07 - City Blues Connection - Playin’ Blues - Radio Edit.mp32024-11-22 02:17 7.2M 
[SND]08 - Daniel Eriksen - Kissing Your Lips.mp32024-11-22 02:17 8.7M 
[SND]09 - Davy Knowles - Welcome to the Real World.mp32024-11-22 02:17 11M 
[SND]10 - Doghouse Sam & His Magnatones - Gone too long.mp32024-11-22 02:17 5.6M 
[SND]11 - Doug Pinnick - Love Defines You.mp32024-11-22 02:17 6.5M 
[SND]12 - Eddie 9V - Red River.mp32024-11-22 02:17 7.3M 
[SND]13 - Funkwrench Blues - Indelicate Balance.mp32024-11-22 02:17 11M 
[SND]14 - G. Love & Special Sauce - Cape Cod Winter Blues.mp32024-11-22 02:17 12M 
[SND]15 - Georg Meggs - Comédia infantil.mp32024-11-22 02:17 9.4M 
[SND]16 - Gregor Hilden - Apostle - Remastered 2024.mp32024-11-22 02:17 5.9M 
[SND]17 - Jeff Meegan - Yeah You Right.mp32024-11-22 02:17 8.3M 
[SND]18 - Kai Strauss - YOU QUIT THIS GAME TOO SOON.mp32024-11-22 02:17 10M 
[SND]19 - Laura Evans - Wherever You Are.mp32024-11-22 02:17 8.4M 
[SND]20 - Mick Clarke - Chauffeur.mp32024-11-22 02:17 6.9M 
[SND]21 - Mike Farris - Heavy On The Humble.mp32024-11-22 02:17 10M 
[SND]22 - Playing For Change - When The Levee Breaks.mp32024-11-22 02:17 14M 
[SND]23 - Playing For Change - The Weight.mp32024-11-22 02:17 13M 
[SND]24 - Rochelle & the Sidewinders - If I Had a Dollar.mp32024-11-22 02:17 11M 
[SND]25 - Serabee - Mississippi Girl.mp32024-11-22 02:17 13M 
[SND]26 - Shawn Pittman - Until The Time Is Right.mp32024-11-22 02:17 12M 
[SND]27 - Steve Fister - One Foot in the Blues.mp32024-11-22 02:17 6.8M 
[SND]28 - Steve Hill - When The Music's Over.mp32024-11-22 02:17 18M 
[SND]29 - The Greyboy Allstars - The Way You Make Me Feel.mp32024-11-22 02:17 14M 
[SND]30 - The Lucky Strokes - Stay On Track.mp32024-11-22 02:17 11M 
[SND]31 - The Woods - Good To See You.mp32024-11-22 02:17 9.9M 
[SND]32 - Tinariwen - Tenere Dafeo Nikchan.mp32024-11-22 02:17 12M 
[SND]33 - Van Zant - Awesome God.mp32024-11-22 02:17 12M 
[SND]34 - Warren Haynes - Go Down Swinging.mp32024-11-22 02:17 15M 
[SND]35 - Wes Jeans - Say One Thing.mp32024-11-22 02:17 10M 
[SND]36 - Y.O.G.A. - Comin' Up.mp32024-11-22 02:17 6.5M 
[IMG]VA - Blues Single Release Week 47.JPG2024-09-20 06:06 410K 
[TXT]VA - Blues Single Release Week 47.html2024-11-22 02:17 11KMp3tag - File Overview
[   ]album.nfo2026-04-19 08:13 7.5K 

Apache/2.4.52 (Ubuntu) Server at library-m.defcomtech.com Port 443